Back to catalog

COSMOS 2251 DEB

AliveLEO
NORAD 34967·DEBRIS·🇷🇺 Russia

Launched Jun 16, 1993 from Plesetsk Cosmodrome

Loading…

Next Passes (next 24 hours)

TLE

FreshSource: Space-Track

Epoch: Sep 13, 2026, 19:54 UTC

1 34967U 93036AEW 26256.82934791  .00001123  00000-0  32488-3 0  9999
2 34967  73.9901 100.1922 0039378 183.1222 176.9696 14.45257807689307

Track COSMOS 2251 DEB in real time with AllMySat

Download on the App Store